Date String (YYYY-MM-DD hh:mm:ss) UTC,Instrument flags,absolute air pressure of the measurement (hPa),sample flow rate (lpm),inlet stack bypass flow (lpm),air temperature of the measurement (°C),ambient temperature measured by the external sensor (°C),aerosol sample conditioner tube jacket temperature (°C),OPC LED temperature (°C),internal box temperature (°C),relative humidity of the measurement (%),span deviation,mass concentration of particles derived from Lorenz-Mie calculation of OPC scattering (μg/m³),mass concentration of particles derived from Lorenz-Mie calculation of OPC scattering (μg/m³),mass concentration of particles derived from Lorenz-Mie calculation of OPC scattering (μg/m³)
DateTimeUTC,F1_M11,P_M11,Q1_M11,Q2_M11,T1_M11,T2_M11,T3_M11,T4_M11,T5_M11,U1_M11,ZSPAN_M11,X0_M11,X2_M11,X1_M11
2024-03-12 04:00:00,SystemResetWarning,0824.3,5.00,000.00,023.0,022.0,000.0,031.6,024.7,14.0,0000.0,0013.11,0003.61,0001.43
2024-03-12 04:01:00,SystemResetWarning,0824.3,5.00,000.00,022.9,022.0,000.0,031.6,024.7,14.0,0000.0,0013.00,0003.52,0001.43
2024-03-12 04:02:00,SystemResetWarning,0824.2,4.99,000.00,022.9,022.0,000.0,031.6,024.7,14.0,0000.0,0013.10,0003.53,0001.41
2024-03-12 04:03:00,SystemResetWarning,0824.3,4.99,000.00,022.9,021.9,000.0,031.6,024.7,14.1,0000.0,0012.77,0003.54,0001.43
2024-03-12 04:04:00,SystemResetWarning,0824.4,5.01,000.00,022.9,021.9,000.0,031.6,024.6,14.1,0000.0,0012.74,0003.44,0001.44
2024-03-12 04:05:00,SystemResetWarning,0824.4,5.00,000.00,022.9,021.9,000.0,031.5,024.6,14.2,0000.0,0012.22,0003.40,0001.45
2024-03-12 04:06:00,SystemResetWarning,0824.4,5.00,000.00,022.8,021.9,000.0,031.5,024.6,14.2,0000.0,0012.27,0003.36,0001.46
2024-03-12 04:07:00,SystemResetWarning,0824.4,4.99,000.00,022.8,021.9,000.0,031.5,024.6,14.2,0000.0,0012.35,0003.32,0001.49
2024-03-12 04:08:00,SystemResetWarning,0824.4,4.99,000.00,022.8,021.9,000.0,031.5,024.6,14.2,0000.0,0012.24,0003.30,0001.52
2024-03-12 04:09:00,SystemResetWarning,0824.4,5.00,000.00,022.8,021.9,000.0,031.5,024.6,14.2,0000.0,0011.18,0003.34,0001.55
2024-03-12 04:10:00,SystemResetWarning,0824.4,5.01,000.00,022.8,021.9,000.0,031.5,024.6,14.2,0000.0,0010.17,0003.36,0001.58
2024-03-12 04:11:00,SystemResetWarning,0824.4,5.00,000.00,022.8,021.9,000.0,031.4,024.6,14.3,0000.0,0010.68,0003.40,0001.58
2024-03-12 04:12:00,SystemResetWarning,0824.4,5.00,000.00,022.8,021.9,000.0,031.4,024.6,14.3,0000.0,0010.34,0003.42,0001.58
2024-03-12 04:13:00,SystemResetWarning,0824.4,4.99,000.00,022.8,021.9,000.0,031.4,024.6,14.3,0000.0,0010.90,0003.42,0001.61
2024-03-12 04:14:00,SystemResetWarning,0824.4,5.00,000.00,022.8,021.9,000.0,031.4,024.6,14.2,0000.0,0011.47,0003.44,0001.61
2024-03-12 04:15:00,SystemResetWarning,0824.4,5.00,000.00,022.8,021.9,000.0,031.4,024.6,14.2,0000.0,0011.12,0003.44,0001.64
2024-03-12 04:16:00,SystemResetWarning,0824.4,5.00,000.00,022.7,021.9,000.0,031.4,024.6,14.2,0000.0,0010.91,0003.44,0001.67
2024-03-12 04:17:00,SystemResetWarning,0824.4,4.99,000.00,022.7,021.9,000.0,031.4,024.6,14.3,0000.0,0011.71,0003.44,0001.69
2024-03-12 04:18:00,SystemResetWarning,0824.4,5.00,000.00,022.7,021.8,000.0,031.3,024.6,14.3,0000.0,0012.10,0003.51,0001.69
2024-03-12 04:19:00,SystemResetWarning,0824.4,5.00,000.00,022.7,021.8,000.0,031.3,024.6,14.3,0000.0,0012.14,0003.52,0001.70
2024-03-12 04:20:00,SystemResetWarning,0824.4,5.00,000.00,022.7,021.8,000.0,031.3,024.5,14.3,0000.0,0012.08,0003.51,0001.70
2024-03-12 04:21:00,SystemResetWarning,0824.4,5.00,000.00,022.7,021.8,000.0,031.3,024.5,14.4,0000.0,0012.63,0003.49,0001.70
2024-03-12 04:22:00,SystemResetWarning,0824.4,5.01,000.00,022.7,021.8,000.0,031.3,024.5,14.3,0000.0,0012.89,0003.49,0001.72
2024-03-12 04:23:00,SystemResetWarning,0824.4,5.01,000.00,022.7,021.8,000.0,031.3,024.5,14.3,0000.0,0013.43,0003.56,0001.73
2024-03-12 04:24:00,SystemResetWarning,0824.4,5.00,000.00,022.7,021.8,000.0,031.3,024.5,14.4,0000.0,0012.46,0003.59,0001.74
2024-03-12 04:25:00,SystemResetWarning,0824.4,4.98,000.00,022.7,021.8,000.0,031.3,024.5,14.3,0000.0,0011.68,0003.55,0001.75
2024-03-12 04:26:00,SystemResetWarning,0824.4,5.00,000.00,022.7,021.8,000.0,031.3,024.5,14.3,0000.0,0012.11,0003.55,0001.74
2024-03-12 04:27:00,SystemResetWarning,0824.4,5.01,000.00,022.7,021.8,000.0,031.3,024.5,14.3,0000.0,0013.20,0003.58,0001.74
2024-03-12 04:28:00,SystemResetWarning,0824.3,4.99,000.00,022.7,021.8,000.0,031.3,024.5,14.3,0000.0,0013.01,0003.58,0001.72
2024-03-12 04:29:00,SystemResetWarning,0824.4,4.99,000.00,022.6,021.8,000.0,031.2,024.4,14.2,0000.0,0012.91,0003.56,0001.71
2024-03-12 04:30:00,SystemResetWarning,0824.4,5.00,000.00,022.6,021.8,000.0,031.2,024.4,14.3,0000.0,0013.03,0003.58,0001.70
2024-03-12 04:31:00,SystemResetWarning,0824.4,5.01,000.00,022.6,021.8,000.0,031.2,024.4,14.3,0000.0,0013.08,0003.59,0001.69
2024-03-12 04:32:00,SystemResetWarning,0824.4,5.01,000.00,022.6,021.8,000.0,031.2,024.4,14.3,0000.0,0012.72,0003.58,0001.68
2024-03-12 04:33:00,SystemResetWarning,0824.4,4.99,000.00,022.6,021.8,000.0,031.2,024.4,14.3,0000.0,0011.96,0003.57,0001.68
2024-03-12 04:34:00,SystemResetWarning,0824.4,5.00,000.00,022.6,021.8,000.0,031.2,024.4,14.3,0000.0,0011.64,0003.51,0001.67
2024-03-12 04:35:00,SystemResetWarning,0824.3,5.01,000.00,022.6,021.8,000.0,031.2,024.4,14.3,0000.0,0012.54,0003.49,0001.66
2024-03-12 04:36:00,SystemResetWarning,0824.4,5.01,000.00,022.6,021.8,000.0,031.2,024.4,14.2,0000.0,0013.02,0003.50,0001.66
2024-03-12 04:37:00,SystemResetWarning,0824.4,5.00,000.00,022.6,021.8,000.0,031.2,024.4,14.2,0000.0,0012.85,0003.51,0001.67
2024-03-12 04:38:00,SystemResetWarning,0824.4,4.99,000.00,022.6,021.8,000.0,031.2,024.4,14.1,0000.0,0012.39,0003.49,0001.66
2024-03-12 04:39:00,SystemResetWarning,0824.4,4.99,000.00,022.6,021.8,000.0,031.2,024.4,14.0,0000.0,0011.68,0003.49,0001.66
2024-03-12 04:40:00,SystemResetWarning,0824.3,4.99,000.00,022.6,021.8,000.0,031.2,024.4,14.0,0000.0,0011.29,0003.49,0001.67
2024-03-12 04:41:00,SystemResetWarning,0824.2,5.01,000.00,022.6,021.8,000.0,031.2,024.4,14.0,0000.0,0010.86,0003.46,0001.68
2024-03-12 04:42:00,SystemResetWarning,0824.2,5.01,000.00,022.6,021.7,000.0,031.2,024.4,13.9,0000.0,0010.80,0003.43,0001.69
2024-03-12 04:43:00,SystemResetWarning,0824.2,5.00,000.00,022.6,021.7,000.0,031.2,024.4,14.0,0000.0,0011.27,0003.45,0001.69
2024-03-12 04:44:00,SystemResetWarning,0824.3,4.99,000.00,022.6,021.7,000.0,031.1,024.4,14.1,0000.0,0011.04,0003.42,0001.68
2024-03-12 04:45:00,SystemResetWarning,0824.3,5.00,000.00,022.6,021.7,000.0,031.1,024.3,14.0,0000.0,0010.75,0003.43,0001.68
2024-03-12 04:46:00,SystemResetWarning,0824.3,5.00,000.00,022.5,021.6,000.0,031.1,024.3,13.9,0000.0,0009.97,0003.45,0001.68
2024-03-12 04:47:00,SystemResetWarning,0824.3,5.01,000.00,022.5,021.6,000.0,031.1,024.3,13.8,0000.0,0009.49,0003.48,0001.67
2024-03-12 04:48:00,SystemResetWarning,0824.3,5.01,000.00,022.5,021.6,000.0,031.1,024.3,13.8,0000.0,0009.32,0003.46,0001.67
2024-03-12 04:49:00,SystemResetWarning,0824.4,5.01,000.00,022.5,021.6,000.0,031.1,024.3,13.8,0000.0,0009.49,0003.48,0001.67
2024-03-12 04:50:00,SystemResetWarning,0824.3,4.99,000.00,022.5,021.6,000.0,031.1,024.3,13.9,0000.0,0010.05,0003.48,0001.66
2024-03-12 04:51:00,SystemResetWarning,0824.3,4.99,000.00,022.5,021.6,000.0,031.1,024.3,13.8,0000.0,0010.09,0003.45,0001.66
2024-03-12 04:52:00,SystemResetWarning,0824.3,5.00,000.00,022.5,021.6,000.0,031.1,024.3,13.7,0000.0,0010.14,0003.44,0001.66
2024-03-12 04:53:00,SystemResetWarning,0824.3,5.01,000.00,022.5,021.6,000.0,031.1,024.3,13.6,0000.0,0010.11,0003.43,0001.65
2024-03-12 04:54:00,SystemResetWarning,0824.4,5.01,000.00,022.4,021.6,000.0,031.1,024.3,13.4,0000.0,0009.81,0003.45,0001.65
2024-03-12 04:55:00,SystemResetWarning,0824.4,5.01,000.00,022.4,021.6,000.0,031.0,024.2,13.6,0000.0,0009.62,0003.44,0001.64
2024-03-12 04:56:00,SystemResetWarning,0824.4,5.00,000.00,022.4,021.6,000.0,031.0,024.2,13.6,0000.0,0009.88,0003.55,0001.63
2024-03-12 04:57:00,SystemResetWarning,0824.4,5.00,000.00,022.4,021.6,000.0,031.0,024.2,13.6,0000.0,0010.05,0003.58,0001.63
2024-03-12 04:58:00,SystemResetWarning,0824.4,4.99,000.00,022.4,021.6,000.0,031.0,024.2,13.6,0000.0,0010.45,0003.57,0001.63
2024-03-12 04:59:00,SystemResetWarning,0824.4,5.00,000.00,022.4,021.6,000.0,031.0,024.2,13.4,0000.0,0011.54,0003.56,0001.63
